Location: Saint Louis
(38.6272°N, 90.1978°W)
Time: 20:42:21
(UTC-05:00)

Hubble Space Telescope - Visible Passes

Search period start: 26 May 2015 00:00
Search period end: 05 June 2015 00:00
Orbit: 542 x 546 km, 28.5° (Epoch: 26 May)

Date Brightness Start Highest point End Pass type
(mag) Time Alt. Az. Time Alt. Az. Time Alt. Az.
02 Jun 3.0 04:44:26 10° S 04:45:48 11° SSE 04:47:15 10° SE visible
03 Jun 2.9 04:35:01 10° SSW 04:36:59 13° SSE 04:39:05 10° SE visible
04 Jun 2.7 04:26:36 13° SSW 04:28:08 15° SSE 04:30:39 10° SE visible
